Погода в Елабуге

Погода в Елабуге : погода сейчас, прогноз погоды и архив. Всё, что Вы хотите узнать о погоде в Елабуге!

Поиск расширенной информации на нашем сайте:

Другие новости

Новости СМИ2

Главная страница сайта

Новости сайта

02.10.2013

Напоминаем, что на нашем новом сайте вы можете получить высокодетализированные прогнозы погоды по пунктам России, СНГ и мира (включающие важные для авиации метеовеличины, такие как направление и скорость ветра, видимость, явления погоды, количество и форма облачности, нижняя и верхняя граница облачности), а также ознакомиться с разнообразными материалами по авиационной метеорологии и подборкой полезных ссылок на эту тему.

Сайт Метеоцентр.Азия посвящён разработке технологий оптимизации авиаметеорологического обслуживания, включая проектирование и перспективное создание нескольких автоматизированных авиаметеорологических систем:
- система выпуска высокодетальных прогностических карт явлений погоды для нижнего воздушного пространства по России и ближнему зарубежью;
- система верификации прогнозов TAF (выпускаемых синоптиками официальных АМСГ РФ и ближнего зарубежья) и AUTOTAF (выпускаемых сайтом Метеоцентр.Азия) - выявление ошибок, онлайн-сопоставление с фактической погодой METAR, автоматическое внесение коррективов в прогнозы при резком отклонении фактической погоды от прогноза, подсчёт оправдываемости прогнозов по элементам и в целом;
- система обработки, анализа и отображения авиаметеорологической информации для применения провайдерами метеорологической информации.


Погода в Елабуге - сегодня

Время (UTC), дата Ветер
(°,м/с) 
Видим.   Явления Облачность Т
(°С)
Тd
(°С)
f(%) Тe
(°С)
Pmin
(гПа)
dP
(гПа)
Po
(мм)
O2
(г/м3)
Тmin Tmax R s Состояние
почвы
12 22.04.17 160 (Ю) 4{11}  10 км    10/10 600 м 
[Sc]
+3.1 -1.1 74 +1  1007.9  -0.9  748  298           
15 22.04.17 120 (ЮВ) 4000 м  слаб. дождь со снегом  10/10 600 м 
[Ns]
+1.3 -0.5 88 1005.6  -2.4  746  299    +7.3  0.4     
18 22.04.17 090 (В) 4000 м  слаб. снег{дождь}  10/10 600 м 
[Ns]
+0.9 -0.5 90 1003.5  -2  744  299           
21 22.04.17 050 (СВ) 10 км  в посл. час дождь{снег}  10/10 600 м 
[Ns]
+0.8 -0.6 90 +1  1001.1  -2.5  742  298           
00 23.04.17 тихо ()   10 км  в посл. час дождь  10/10 600 м 
[Sc]
+0.8 -0.4 92 +1  1000.7  -0.3  742  298           
03 23.04.17 250 (З) 4000 м  дымка  10/0 средняя 
[As trans]
+1.2 -0.2 90 +2  1001  0.3  742  298  +0.6      влажная 
06 23.04.17 220 (ЮЗ) 10 км    8/0 средняя 
[As op]
+3.7 +0.2 78 +2  1002.8  1.9  744  296           
09 23.04.17 210 (ЮЗ) 10 км    10/0 средняя 
[As trans]
+3.8 +1.2 83 +2  1004.9  745  296           
12 23.04.17 200 (Ю) 10 км    9/0 средняя 
[Ac lent]
+8.9 +2.7 65 +8  1005.9  1.2  746  291           
15 23.04.17 250 (З) 4{10}  10 км    3/0 средняя 
[Ac lent]
+10.2 -4.7 35 +9  1007  1.2  747  291    +11.1       
18 23.04.17 тихо ()   10 км    ясно 
+2.3 -2.7 69 +2  1008.9  1.5  748  299           
21 23.04.17 330 (СЗ) 10 км    3/0 средняя 
[Ac lent]
+0.3 -3.1 78 +1  1010.4  1.4  749  302           
00 24.04.17 тихо ()   10 км    10/0 средняя 
[Ac As]
+0.8 -2.1 81 +1  1010.9  0.5  750  301           
03 24.04.17 тихо ()   10 км    10/0 средняя 
[Ac As]
+2.7 -0.6 79 +3  1009.9  -0.9  749  299  -0.3        влажная 
06 24.04.17 080 (В) 10 км    10/0 средняя 
[Ac As]
+6.1 +1.4 72 +7  1009.1  -0.6  749  295  -0.3         
09 24.04.17 060 (СВ) 10 км  слаб. дождь  10/10 600 м 
[Sc]
+4.7 +3.2 90 +4  1005.6  -3.6  746  295           
12 24.04.17 060 (СВ) 10 км  слаб. дождь  10/10 600 м 
[Sc]
+5.3 +3.9 91 +4  1002.7  -2.8  744  293           
15 24.04.17 060 (СВ) 10 км  слаб. дождь  10/10 600 м 
[Sc]
+5.8 +4.6 92 +6  998.5  -4.2  741  291    +6.2     
18 24.04.17 110 (В) 4000 м  слаб. дождь  10/10 600 м 
[Sc]
+6.5 +5.2 91 +7  995.3  -3.1  738  290           
21 24.04.17 140 (ЮВ) 10 км  {дождь}  10/10 600 м 
[Sc]
+6.8 +5.4 91 +8  994.4  -0.9  738  289           
00 25.04.17 240 (ЮЗ) 6-11{11}  н/о    н/о 
+4.8 +3.4 91 +2  996.6  2.1  739  292           
03 25.04.17 250 (З) 5-10{13}  10 км    10/0 средняя 
[Ac As]
+2.7 +0.2 84 1003.6  6.8  744  297  +2.3      влажная 
06 25.04.17 260 (З) 5-11{12}  10 км    10/10 600 м 
[Sc]
+4.6 +1.1 78 +2  1008.5  4.9  748  296           
09 25.04.17 250 (З) 4{12}  10 км    8/8 600 м 
[Sc]
+7.6 +0.2 59 +6  1012.2  3.7  751  294           
12 25.04.17 260 (З) 4{12}  10 км    8/8 600 м 
[Cu Sc]
+10.3 -1.6 43 +9  1014.1  752  292           
Время (UTC), дата Ветер
(°,м/с) 
Видим.   Явления Облачность Т
(°С)
Тd
(°С)
f(%) Тe
(°С)
Pmin
(гПа)
dP
(гПа)
Po
(мм)
O2
(г/м3)
Тmin Tmax R s Состояние
почвы

Для получения пояснительной информации подведите курсор к названию столбца.

ПОГОДА в Елабуге - архив

Всё, что Вы хотите узнать о погоде в Елабуге - удобно и подробно!

Выберите нужную дату (начиная с 1 января 2015* года) и нажмите кнопку "Найти".
Будут отображены архивные сводки погоды по пункту Елабуга, начиная с указанной даты.


Отображать данные в формате CSV (для использования в таблицах Excel)


Внимание! Наш архив погоды предназначен исключительно для личного некоммерческого использования в познавательных целях. Если Вам необходимы официальные справки о состоянии погоды (для производственных, юридических, коммерческих и т.п. целей), обращайтесь в органы Росгидромета.

*Примечание: данная дата относится к архиву по метеостанциям СССР (Россия, СНГ, Балтия).
Архив по метеостанциям Зарубежной Европы и Азии (кроме Китая) хранится 10 дней, по другим регионам земного шара (Китай, Африка, Америка, Австралия, Океания) - 1 день.

Елабуга - район местоположения метеостанции


Название, широта, долгота, высота метеостанции:
Елабуга 55.7°ш. 52.1°д. 90 м над ур. моря [Российская Федерация]

Дополнительная информация

В oтличие oт бoльшинства пoгoдных сайтoв мы публикуем пoдрoбную метеoинфoрмацию в детальнoм прoфессиoнальнoм фoрмате.

Характеристики температуры и влажнoсти вoздуха измеряются на высoте 2 м в тени вдали oт зданий и деревьев.
Скoрoсть ветра измеряется на высoте 10 м (на урoвне рoста челoвека скoрoсть ветра ниже в 1.5-2 раза). Если метеoстанция нахoдится в гoрoде или в лесу, тo скoрoсть ветра занижена на 2-4 м/с пo сравнению с oткрытым местoм. Скoрoсть ветра над акватoриями крупных рек и oзёр, а также на вершинах хoлмoв на 2-5 м/с выше, чем в oбычных услoвиях.
Атмoсфернoе давление в разных тoчках местнoсти мoжет значительнo oтличаться oт давления на метеoстанции, в зависимoсти oт услoвий рельефа (при пoдъёме на 10 м давление пoнижается примернo на 1 мм рт.ст.).